This demonstration page uses our WeatherBlox Daily Observations layout. Learn more.

Left ArrowRight Arrow

34.74481, -87.66753

Hourly Observations for March 31, 2021

Temp ( °F °C ) Dew Point ( °F °C ) Humidity (%) Winds ( mph kmh ) Pressure ( in mb ) Visibility ( mi km ) Precip ( " mm )
12:19 am 00:19 Cloudy 70 21.1 63 17.2 79 79 S 10 17 29.98 1015 10 16 0.00 0.00
12:53 am 00:53 Cloudy 70 21.1 63 17.2 79 79 S 10 17 29.96 1015 10 16 0.00 0.00
1:35 am 01:35 Cloudy with Light Rain 70 21.1 64 17.8 82 82 SSW 9 15 29.96 1014 7 11 0.01 0.25
1:53 am 01:53 Cloudy with Light Rain 70 21.1 64 17.8 82 82 SW 10 17 29.96 1015 4 6 0.01 0.25
2:00 am 02:00 Cloudy with Rain 70 21.1 64 17.8 82 82 SW 14 22 29.97 1015 6 10 0.00 0.00
2:10 am 02:10 Cloudy with Rain 70 21.1 64 17.8 82 82 SW 9 15 29.97 1015 5 8 0.00 0.00
2:22 am 02:22 Cloudy with Rain 70 21.1 65 18.3 84 84 WSW 10 17 29.97 1015 4 6 0.00 0.00
2:49 am 02:49 Cloudy with Rain 70 21 64 18 83 83 S 7 11 29.95 1014 5 8 0.00 0.00
2:53 am 02:53 Cloudy with Rain 70 21.1 65 18.3 84 84 S 7 11 29.95 1014 6 10 0.00 0.00
3:00 am 03:00 Cloudy with Rain 70 21.1 65 18.3 84 84 SSW 7 11 29.96 1014 4 6 0.00 0.00
3:53 am 03:53 Cloudy with Light Rain 69 20.6 65 18.3 87 87 S 6 9 29.93 1014 7 11 0.00 0.00
4:51 am 04:51 Cloudy 66 19 63 17 88 88 WSW 7 11 29.97 1015 10 16 0.01 0.25
4:53 am 04:53 Cloudy 67 19.4 62 16.7 84 84 WSW 8 13 29.96 1015 10 16 0.01 0.25
5:00 am 05:00 Cloudy 67 19.4 62 16.7 84 84 SW 6 9 29.97 1015 10 16 0.00 0.00
5:26 am 05:26 Cloudy 67 19.4 62 16.7 84 84 Calm 29.96 1015 10 16 0.01 0.25
5:53 am 05:53 Cloudy 66 18.9 62 16.7 87 87 SSE 6 9 29.96 1015 10 16 0.01 0.25
5:59 am 05:59 Cloudy with Thunderstorms 67 19.4 62 16.7 84 84 VRB 3 6 29.97 1015 2 3 0.00 0.00
6:06 am 06:06 Cloudy with Strong Thunderstorms 66 18.9 62 16.7 87 87 ESE 3 6 29.96 1015 1 2 0.00 0.00
6:12 am 06:12 Cloudy with Thunderstorms 66 18.9 62 16.7 87 87 Calm 29.97 1015 2 3 0.00 0.00
6:19 am 06:19 Cloudy with Light Rain 66 18.9 62 16.7 87 87 Calm 29.98 1015 4 6 0.00 0.00
6:40 am 06:40 Cloudy with Nearby Thunderstorms 66 18.9 62 16.7 87 87 NW 6 9 29.99 1016 3 5 0.00 0.00
6:53 am 06:53 Cloudy with Nearby Thunderstorms 66 18.9 62 16.7 87 87 WSW 3 6 29.99 1016 5 8 0.00 0.00
7:01 am 07:01 Cloudy with Nearby Thunderstorms 66 18.9 62 16.7 87 87 SW 8 13 30.01 1016 4 6 0.00 0.00
7:31 am 07:31 Cloudy with Heavy Rain 66 18.9 62 16.7 87 87 W 5 7 30.04 1017 3 5 0.00 0.00
7:36 am 07:36 Cloudy with Heavy Rain 66 18.9 62 16.7 87 87 NNW 7 11 30.04 1017 3 4 0.00 0.00
7:41 am 07:41 Cloudy with Heavy Rain 66 18.9 62 16.7 87 87 NW 8 13 30.05 1018 3 5 0.00 0.00
7:53 am 07:53 Cloudy with Heavy Rain 66 18.9 61 16.1 84 84 N 9 15 30.05 1018 3 4 0.00 0.00
7:56 am 07:56 Cloudy with Rain 66 18.9 61 16.1 84 84 N 10 17 30.05 1018 3 5 0.00 0.00
8:02 am 08:02 Cloudy with Rain 65 18.3 60 15.6 84 84 N 13 20 30.06 1018 4 6 0.00 0.00
8:06 am 08:06 Cloudy with Rain 64 17.8 59 15 84 84 N 13 20 30.06 1018 4 6 0.00 0.00
8:30 am 08:30 Cloudy with Light Rain 58 14.4 52 11.1 81 81 N 15 24 30.05 1018 5 8 0.00 0.00
8:53 am 08:53 Cloudy 56 13.3 50 10 81 81 N 14 22 30.05 1018 10 16 0.00 0.00
9:53 am 09:53 Cloudy 53 11.7 45 7.2 74 74 N 10 17 30.12 1020 10 16 0.00 0.00
10:11 am 10:11 Cloudy 52 11.1 42 5.6 69 69 N 15 24 30.15 1021 10 16 0.00 0.00
10:53 am 10:53 Cloudy 53 11.7 42 5.6 66 66 NNE 13 20 30.13 1020 10 16 1.22 30.99
11:53 am 11:53 Cloudy 55 12.8 40 4.4 57 57 N 13 20 30.14 1021 10 16 0.00 0.00
12:53 pm 12:53 Cloudy 54 12.2 35 1.7 49 49 NNE 13 20 30.16 1022 10 16 0.00 0.00
1:53 pm 13:53 Cloudy 53 11.7 36 2.2 52 52 N 9 15 30.19 1022 10 16 0.00 0.00
2:53 pm 14:53 Cloudy 54 12.2 33 0.6 45 45 N 6 9 30.19 1022 10 16 0.00 0.00
3:53 pm 15:53 Cloudy 54 12.2 26 -3.3 34 34 NNW 17 28 30.20 1023 10 16 0.00 0.00
4:53 pm 16:53 Cloudy 54 12.2 25 -3.9 33 33 VRB 7 11 30.23 1024 10 16 0.00 0.00
5:53 pm 17:53 Cloudy 54 12.2 27 -2.8 35 35 N 10 17 30.23 1024 10 16 0.00 0.00
6:53 pm 18:53 Mostly Sunny 53 11.7 24 -4.4 32 32 N 7 11 30.24 1024 10 16 0.00 0.00
7:53 pm 19:53 Clear 50 10 26 -3.3 39 39 N 3 6 30.26 1025 10 16 0.00 0.00
8:53 pm 20:53 Clear 49 9.4 27 -2.8 43 43 NNW 6 9 30.29 1026 10 16 0.00 0.00
9:53 pm 21:53 Clear 47 8.3 27 -2.8 46 46 NNW 5 7 30.32 1027 10 16 0.00 0.00
10:53 pm 22:53 Clear 43 6.1 29 -1.7 58 58 NW 3 6 30.33 1027 10 16 0.00 0.00
11:53 pm 23:53 Clear 41 5 28 -2.2 60 60 NW 3 6 30.33 1027 10 16 0.00 0.00

Powered by AerisWeather